Lakeville, MN

12:43 PM CDT on July 20, 2017 (GMT -0500)
Airlake

Weather History for KLVN - December, 2012

Change the Weather History Date:

Thursday, December 20, 2012

  Actual Average Record
Temperature  
Mean Temperature 17 °F -  
Max Temperature 24 °F 23 °F 50 °F (1967)
Min Temperature 10 °F 7 °F -30 °F (1983)
Degree Days  
Heating Degree Days 48    
Moisture  
Dew Point 17 °F    
Average Humidity 87    
Maximum Humidity 100    
Minimum Humidity 74    
Precipitation  
Precipitation 0.01 in - - ()
Sea Level Pressure  
Sea Level Pressure 29.88 in    
Wind  
Wind Speed 14 mph (NNW)    
Max Wind Speed 26 mph    
Max Gust Speed 33 mph    
Visibility 6 miles    
Events Snow    
Averages and records for this station are not official NWS values.
T = Trace of Precipitation, MM = Missing Value Source: NWS Daily Summary

Daily Weather History Graph

Daily Weather History Graph

Search for Another Location

Airport or City:

Trip Planner

Search our weather history database for the weather conditions in past years. The results will help you decide how hot, cold, wet, or windy it might be!

Date:

Astronomy

Dec. 20, 2012 Rise Set
Actual Time 7:46 AM CST 4:35 PM CST
Civil Twilight 7:12 AM CST 5:08 PM CST
Nautical Twilight 6:35 AM CST 5:45 PM CST
Astronomical Twilight 6:00 AM CST 6:21 PM CST
Moon 12:05 PM CST 12:20 AM CST
Length of Visible Light 9h 55m
Length of Day
8h 48m
First Quarter, 55% of the Moon is Illuminated
Dec 20
First Quarter
Dec 28
Full
Jan 4
Last Quarter
Jan 11
New
Jan 18
First Quarter

Hourly Weather History & Observations

Time (CST) Temp. Windchill Dew Point Humidity Pressure Visibility Wind Dir Wind Speed Gust Speed Precip Events Conditions
12:12 AM 24.8 °F 16.1 °F 24.8 °F 100% 29.93 in 2.0 mi North 8.1 mph - 0.01 in Snow Light Snow
12:51 AM 24.8 °F 16.9 °F 23.0 °F 93% 29.92 in 3.0 mi North 6.9 mph - 0.01 in   Overcast
1:12 AM 24.8 °F 16.1 °F 23.0 °F 93% 29.92 in 2.5 mi North 8.1 mph - N/A Snow Light Snow
1:31 AM 24.8 °F 14.0 °F 21.2 °F 86% 29.92 in 1.5 mi NNW 11.5 mph - N/A Snow Light Snow
1:51 AM 23.0 °F 12.4 °F 21.2 °F 93% 29.92 in 1.5 mi NNW 10.4 mph - N/A Snow Light Snow
2:12 AM 21.2 °F 10.1 °F 21.2 °F 100% 29.91 in 1.5 mi NNW 10.4 mph - N/A Snow Light Snow
2:31 AM 21.2 °F 10.9 °F 21.2 °F 100% 29.92 in 1.8 mi North 9.2 mph - N/A Snow Light Snow
2:51 AM 21.2 °F 11.7 °F 21.2 °F 100% 29.91 in 2.5 mi North 8.1 mph - N/A Snow Light Snow
3:12 AM 21.2 °F 9.5 °F 21.2 °F 100% 29.90 in 2.0 mi North 11.5 mph - N/A Snow Light Snow
3:31 AM 21.2 °F 11.7 °F 19.4 °F 93% 29.90 in 2.0 mi North 8.1 mph - N/A Snow Light Snow
3:52 AM 21.2 °F 10.9 °F 19.4 °F 93% 29.89 in 2.0 mi NNW 9.2 mph - N/A Snow Light Snow
4:12 AM 21.2 °F 10.1 °F 19.4 °F 93% 29.88 in 2.5 mi North 10.4 mph - N/A Snow Light Snow
4:31 AM 21.2 °F 11.7 °F 19.4 °F 93% 29.88 in 4.0 mi NNW 8.1 mph - N/A Snow Light Snow
4:52 AM 21.2 °F 9.5 °F 19.4 °F 93% 29.86 in 4.0 mi NNW 11.5 mph - N/A   Overcast
5:12 AM 21.2 °F 9.5 °F 19.4 °F 93% 29.86 in 7.0 mi NNW 11.5 mph - N/A   Overcast
5:31 AM 21.2 °F 10.9 °F 19.4 °F 93% 29.86 in 5.0 mi NNW 9.2 mph - N/A   Overcast
6:12 AM 21.2 °F 9.5 °F 19.4 °F 93% 29.85 in 5.0 mi NNW 11.5 mph 17.3 mph N/A Snow Light Snow
6:31 AM 21.2 °F 7.8 °F 19.4 °F 93% 29.85 in 5.0 mi NNW 15.0 mph - N/A Snow Light Snow
6:52 AM 21.2 °F 8.9 °F 19.4 °F 93% 29.85 in 5.0 mi NNW 12.7 mph - N/A   Overcast
7:11 AM 19.4 °F 6.0 °F 17.6 °F 93% 29.85 in 3.0 mi NNW 13.8 mph 18.4 mph N/A Snow Light Snow
7:31 AM 21.2 °F 7.3 °F 19.4 °F 93% 29.85 in 2.0 mi NNW 16.1 mph - N/A Snow Light Snow
7:52 AM 21.2 °F 6.8 °F 17.6 °F 86% 29.85 in 2.0 mi NNW 17.3 mph 24.2 mph N/A Snow Light Snow
8:11 AM 21.2 °F 6.0 °F 19.4 °F 93% 29.85 in 1.8 mi NNW 19.6 mph 23.0 mph N/A Snow Light Snow
8:32 AM 21.2 °F 6.8 °F 19.4 °F 93% 29.86 in 1.5 mi North 17.3 mph 21.9 mph N/A Snow Light Snow
8:52 AM 21.2 °F 7.3 °F 19.4 °F 93% 29.86 in 1.0 mi NNW 16.1 mph 24.2 mph N/A Snow Light Snow
9:12 AM 21.2 °F 7.3 °F 19.4 °F 93% 29.86 in 0.8 mi NNW 16.1 mph 23.0 mph N/A Snow Light Snow
9:31 AM 21.2 °F 8.3 °F 19.4 °F 93% 29.86 in 1.0 mi North 13.8 mph - N/A Snow Light Snow
9:52 AM 21.2 °F 7.8 °F 17.6 °F 86% 29.86 in 1.5 mi NNW 15.0 mph 21.9 mph N/A Snow Light Snow
10:11 AM 21.2 °F 7.3 °F 17.6 °F 86% 29.86 in 2.0 mi NNW 16.1 mph 24.2 mph N/A Snow Light Snow
10:31 AM 21.2 °F 7.8 °F 19.4 °F 93% 29.86 in 2.5 mi NNW 15.0 mph - N/A   Overcast
10:52 AM 21.2 °F 6.8 °F 19.4 °F 93% 29.85 in 4.0 mi NNW 17.3 mph 25.3 mph N/A   Overcast
11:11 AM 23.0 °F 6.6 °F 19.4 °F 86% 29.83 in 5.0 mi NNW 25.3 mph 31.1 mph N/A   Overcast
11:31 AM 23.0 °F 6.9 °F 19.4 °F 86% 29.82 in 7.0 mi NNW 24.2 mph 28.8 mph N/A   Overcast
11:52 AM 23.0 °F 8.0 °F 19.4 °F 86% 29.82 in 5.0 mi NNW 20.7 mph 28.8 mph N/A   Mostly Cloudy
12:11 PM 23.0 °F 8.7 °F 19.4 °F 86% 29.82 in 7.0 mi NNW 18.4 mph 29.9 mph N/A   Mostly Cloudy
12:32 PM 24.8 °F 10.0 °F 19.4 °F 80% 29.81 in 7.0 mi NNW 21.9 mph 27.6 mph N/A   Overcast
12:52 PM 24.8 °F 11.5 °F 19.4 °F 80% 29.81 in 7.0 mi NNW 17.3 mph 27.6 mph N/A   Overcast
1:11 PM 24.8 °F 9.6 °F 19.4 °F 80% 29.81 in 7.0 mi NNW 23.0 mph 29.9 mph N/A   Overcast
1:32 PM 24.8 °F 10.3 °F 19.4 °F 80% 29.81 in 7.0 mi NNW 20.7 mph 28.8 mph N/A   Overcast
1:51 PM 24.8 °F 10.0 °F 19.4 °F 80% 29.80 in 7.0 mi NNW 21.9 mph 32.2 mph N/A   Overcast
2:11 PM 24.8 °F 9.0 °F 19.4 °F 80% 29.80 in 7.0 mi NNW 25.3 mph 28.8 mph N/A   Overcast
2:32 PM 24.8 °F 8.7 °F 17.6 °F 74% 29.80 in 5.0 mi NNW 26.5 mph 33.4 mph N/A   Haze
2:51 PM 24.8 °F 11.1 °F 19.4 °F 80% 29.81 in 10.0 mi NW 18.4 mph 27.6 mph N/A   Mostly Cloudy
3:11 PM 23.0 °F 7.6 °F 17.6 °F 80% 29.82 in 7.0 mi NW 21.9 mph 26.5 mph N/A   Mostly Cloudy
3:32 PM 23.0 °F 8.7 °F 17.6 °F 80% 29.83 in 10.0 mi NW 18.4 mph 26.5 mph N/A   Mostly Cloudy
3:51 PM 21.2 °F 4.5 °F 17.6 °F 86% 29.83 in 10.0 mi NW 24.2 mph 28.8 mph N/A   Scattered Clouds
4:11 PM 21.2 °F 5.6 °F 15.8 °F 80% 29.84 in 7.0 mi NW 20.7 mph 29.9 mph N/A   Clear
4:32 PM 21.2 °F 5.2 °F 15.8 °F 80% 29.85 in 10.0 mi NW 21.9 mph 28.8 mph N/A   Clear
4:51 PM 19.4 °F 2.1 °F 15.8 °F 86% 29.86 in 10.0 mi NW 24.2 mph 27.6 mph N/A   Clear
5:11 PM 19.4 °F 4.5 °F 15.8 °F 86% 29.88 in 10.0 mi NW 17.3 mph 27.6 mph N/A   Clear
5:31 PM 19.4 °F 3.2 °F 14.0 °F 80% 29.88 in 10.0 mi NW 20.7 mph 25.3 mph N/A   Clear
5:51 PM 19.4 °F 2.8 °F 14.0 °F 80% 29.89 in 10.0 mi NW 21.9 mph 26.5 mph N/A   Clear
6:12 PM 17.6 °F 0.9 °F 14.0 °F 86% 29.90 in 10.0 mi NW 20.7 mph - N/A   Clear
6:31 PM 17.6 °F 1.3 °F 12.2 °F 79% 29.91 in 10.0 mi NW 19.6 mph 25.3 mph N/A   Clear
6:52 PM 17.6 °F 0.5 °F 12.2 °F 79% 29.91 in 10.0 mi NW 21.9 mph 26.5 mph N/A   Clear
7:12 PM 17.6 °F 0.1 °F 12.2 °F 79% 29.92 in 10.0 mi NW 23.0 mph - N/A   Clear
7:31 PM 17.6 °F 0.9 °F 12.2 °F 79% 29.93 in 10.0 mi NW 20.7 mph 24.2 mph N/A   Scattered Clouds
7:52 PM 17.6 °F 1.7 °F 12.2 °F 79% 29.93 in 10.0 mi NW 18.4 mph 26.5 mph N/A   Mostly Cloudy
8:12 PM 15.8 °F 0.3 °F 12.2 °F 86% 29.94 in 10.0 mi NW 16.1 mph 26.5 mph N/A   Mostly Cloudy
8:31 PM 15.8 °F -0.2 °F 12.2 °F 86% 29.95 in 10.0 mi NW 17.3 mph 23.0 mph N/A   Mostly Cloudy
8:52 PM 15.8 °F -0.2 °F 12.2 °F 86% 29.95 in 10.0 mi NW 17.3 mph - N/A   Scattered Clouds
9:12 PM 15.8 °F 3.4 °F 12.2 °F 86% 29.96 in 10.0 mi NW 10.4 mph - N/A   Scattered Clouds
9:31 PM 14.0 °F -3.0 °F 8.6 °F 79% 29.97 in 10.0 mi NW 18.4 mph 24.2 mph N/A   Clear
9:51 PM 14.0 °F -3.0 °F 8.6 °F 79% 29.98 in 10.0 mi NW 18.4 mph 29.9 mph N/A   Clear
10:12 PM 12.2 °F -4.3 °F 8.6 °F 85% 29.99 in 10.0 mi NW 16.1 mph 27.6 mph N/A   Clear
10:31 PM 12.2 °F -4.8 °F 8.6 °F 85% 30.00 in 10.0 mi NW 17.3 mph 25.3 mph N/A   Clear
10:51 PM 12.2 °F -4.3 °F 8.6 °F 85% 30.01 in 10.0 mi NW 16.1 mph 26.5 mph N/A   Clear
11:12 PM 12.2 °F -6.3 °F 8.6 °F 85% 30.01 in 10.0 mi NW 20.7 mph 24.2 mph N/A   Clear
11:31 PM 10.4 °F -4.8 °F 6.8 °F 85% 30.03 in 10.0 mi NW 12.7 mph - N/A   Clear
11:51 PM 10.4 °F -6.0 °F 6.8 °F 85% 30.03 in 10.0 mi NW 15.0 mph - N/A   Clear